EDT,Max TemperatureF,Mean TemperatureF,Min TemperatureF,Max Dew PointF,MeanDew PointF,Min DewpointF,Max Humidity, Mean Humidity, Min Humidity, Max Sea Level PressureIn, Mean Sea Level PressureIn, Min Sea Level PressureIn, Max VisibilityMiles, Mean VisibilityMiles, Min VisibilityMiles, Max Wind SpeedMPH, Mean Wind SpeedMPH, Max Gust SpeedMPH,PrecipitationIn, CloudCover, Events, WindDirDegrees
2012-10-1,62,59,56,60,56,50,100,89,77,29.85,29.73,29.63,10,8,2,23,10,29,0.27,6,Rain,84
2012-10-2,73,66,59,67,63,57,100,87,73,29.94,29.74,29.63,10,10,3,15,7,20,0.06,7,Rain,178
2012-10-3,71,62,53,57,54,51,100,78,55,30.16,30.06,29.94,10,10,9,16,7,22,0.00,3,,197
2012-10-4,75,65,54,60,55,53,100,77,53,30.26,30.21,30.17,10,10,10,14,7,17,0.00,0,,192
2012-10-5,76,62,48,61,57,53,100,77,54,30.19,30.08,29.93,10,10,7,23,8,31,0.00,3,,205
2012-10-6,58,50,41,45,39,32,100,70,39,30.17,30.10,30.00,10,10,10,22,7,29,0.04,5,Rain,331
2012-10-7,55,47,38,41,38,34,89,70,50,30.20,30.15,30.10,10,10,10,14,4,17,0.00,5,,328
2012-10-8,56,48,39,41,37,35,89,70,51,30.26,30.20,30.15,10,10,10,9,4,10,0.00,3,,72
2012-10-9,60,48,35,44,39,35,100,73,46,30.20,30.14,30.01,10,7,0,13,6,31,0.00,0,Fog,161
2012-10-10,59,49,39,47,40,32,93,68,43,30.26,30.10,29.99,10,10,10,20,9,25,0.00,3,,259
2012-10-11,63,47,31,39,33,29,89,63,36,30.32,30.26,30.19,10,10,10,14,5,18,0.00,0,,173
2012-10-12,66,53,39,45,42,37,92,70,48,30.34,30.29,30.22,10,10,10,12,5,15,0.00,2,,57
2012-10-13,74,59,44,61,51,40,89,73,57,30.32,30.21,30.09,10,10,10,18,9,24,0.00,3,,169
2012-10-14,73,66,59,61,57,53,90,78,66,30.08,29.92,29.80,10,9,1,33,17,46,0.20,4,Rain,199
2012-10-15,62,52,41,58,46,40,90,68,46,29.99,29.92,29.83,10,10,10,20,8,26,0.00,2,,270
2012-10-16,66,51,35,43,40,34,100,72,43,30.03,29.95,29.85,10,10,10,12,5,15,0.00,0,,169
2012-10-17,74,63,51,51,47,41,83,65,47,29.87,29.77,29.60,10,10,10,20,12,26,0.00,0,Rain,170
2012-10-18,64,58,51,54,42,26,93,59,25,29.73,29.67,29.56,10,10,10,25,12,35,0.09,4,Rain,214
2012-10-19,59,53,46,44,39,35,86,67,47,29.78,29.69,29.63,10,10,6,25,11,30,0.04,6,Rain,209
2012-10-20,54,48,42,45,43,40,100,86,71,30.02,29.90,29.79,10,10,10,16,6,21,0.00,7,,234
2012-10-21,67,55,42,48,45,41,96,72,48,30.16,30.10,30.03,10,10,10,13,6,24,0.00,3,,157
2012-10-22,75,65,54,55,50,45,78,63,48,30.19,30.13,30.06,10,10,10,20,9,23,0.04,3,,177
2012-10-23,77,67,56,53,49,45,77,57,36,30.14,30.08,30.04,10,10,10,18,8,23,T,1,,187
2012-10-24,77,66,54,55,51,48,80,61,41,30.17,30.10,30.05,10,10,10,13,7,16,0.00,1,,172
2012-10-25,78,66,54,55,51,47,77,60,42,30.10,30.03,29.99,10,10,10,18,9,24,0.00,0,,178
2012-10-26,62,54,45,53,50,45,100,84,67,30.12,30.07,30.00,10,10,7,17,9,22,0.04,6,Rain,346
2012-10-27,48,46,43,45,43,37,100,86,71,30.12,30.07,30.03,10,8,2,18,11,24,0.22,8,Rain,2
2012-10-28,47,45,42,38,37,33,76,71,65,30.06,30.03,30.00,10,10,10,20,13,25,T,8,Rain,358
2012-10-29,45,40,34,34,29,20,82,60,37,30.04,29.96,29.78,10,10,10,28,16,41,T,6,Rain,326
2012-10-30,43,40,37,37,34,27,100,77,53,29.75,29.66,29.60,10,9,5,26,16,38,0.26,8,Rain,287
2012-10-31,47,43,38,38,34,32,92,75,58,29.88,29.79,29.72,10,10,8,17,9,24,0.02,8,Rain,280